Time,TemperatureF,DewpointF,PressureIn,WindDirection,WindDirectionDegrees,WindSpeedMPH,WindSpeedGustMPH,Humidity,HourlyPrecipIn,Conditions,Clouds,dailyrainin,SoftwareType,DateUTC
2013-01-10 00:00:00,69.3,67.2,30.33,ENE,75,0.0,0.0,93,0.00,,,0.00,VWS V14.01,2013-01-10 05:00:00,
2013-01-10 00:01:00,69.2,67.1,30.33,ENE,75,0.0,0.0,93,0.00,,,0.00,VWS V14.01,2013-01-10 05:01:00,
2013-01-10 00:06:00,69.3,67.2,30.33,ENE,75,0.0,0.0,93,0.00,,,0.00,VWS V14.01,2013-01-10 05:06:00,
2013-01-10 00:11:00,69.1,67.0,30.33,ENE,75,0.0,0.0,93,0.00,,,0.00,VWS V14.01,2013-01-10 05:11:00,
2013-01-10 00:16:00,69.2,67.1,30.33,ENE,75,0.0,0.0,93,0.00,,,0.00,VWS V14.01,2013-01-10 05:16:00,
2013-01-10 00:21:00,69.1,67.1,30.33,ENE,75,0.0,0.0,93,0.00,,,0.00,VWS V14.01,2013-01-10 05:21:00,
2013-01-10 00:26:00,69.0,67.0,30.33,ENE,75,0.0,0.0,93,0.00,,,0.00,VWS V14.01,2013-01-10 05:26:00,
2013-01-10 00:31:00,69.2,67.2,30.33,ENE,75,0.0,0.0,93,0.00,,,0.00,VWS V14.01,2013-01-10 05:31:00,
2013-01-10 00:36:00,68.9,66.9,30.33,ENE,75,0.0,0.0,93,0.00,,,0.00,VWS V14.01,2013-01-10 05:36:00,
2013-01-10 00:41:00,68.9,66.8,30.33,ENE,75,0.0,0.0,93,0.00,,,0.00,VWS V14.01,2013-01-10 05:41:00,
2013-01-10 00:46:00,68.9,66.8,30.33,ENE,75,0.0,0.0,93,0.00,,,0.00,VWS V14.01,2013-01-10 05:46:00,
2013-01-10 00:51:00,68.6,66.5,30.33,ENE,75,0.0,0.0,93,0.00,,,0.00,VWS V14.01,2013-01-10 05:51:00,
2013-01-10 00:56:00,68.5,66.4,30.33,ENE,75,0.0,0.0,93,0.00,,,0.00,VWS V14.01,2013-01-10 05:56:00,
2013-01-10 01:01:00,68.4,66.3,30.33,ENE,75,0.0,0.0,93,0.00,,,0.00,VWS V14.01,2013-01-10 06:01:00,
2013-01-10 01:06:00,68.4,66.3,30.33,ENE,75,0.0,0.0,93,0.00,,,0.00,VWS V14.01,2013-01-10 06:06:00,
2013-01-10 01:11:00,68.4,66.3,30.33,ENE,75,0.0,0.0,93,0.00,,,0.00,VWS V14.01,2013-01-10 06:11:00,
2013-01-10 01:16:00,68.3,66.2,30.33,ENE,75,0.0,0.0,93,0.00,,,0.00,VWS V14.01,2013-01-10 06:16:00,
2013-01-10 01:20:00,68.3,66.2,30.33,ENE,75,0.0,0.0,93,0.00,,,0.00,VWS V14.01,2013-01-10 06:20:00,
2013-01-10 01:25:00,68.4,66.3,30.33,ENE,75,0.0,0.0,93,0.00,,,0.00,VWS V14.01,2013-01-10 06:25:00,
2013-01-10 01:30:00,68.2,66.1,30.33,ENE,75,0.0,0.0,93,0.00,,,0.00,VWS V14.01,2013-01-10 06:30:00,
2013-01-10 01:35:00,68.3,66.2,30.33,ENE,75,0.0,0.0,93,0.00,,,0.00,VWS V14.01,2013-01-10 06:35:00,
2013-01-10 01:40:00,68.3,66.3,30.33,ENE,75,0.0,0.0,93,0.00,,,0.00,VWS V14.01,2013-01-10 06:40:00,
2013-01-10 01:45:00,68.2,66.1,30.33,ENE,75,0.0,0.0,93,0.00,,,0.00,VWS V14.01,2013-01-10 06:45:00,
2013-01-10 01:50:00,68.2,66.1,30.32,ENE,75,0.0,0.0,93,0.00,,,0.00,VWS V14.01,2013-01-10 06:50:00,
2013-01-10 01:55:00,68.2,66.1,30.32,ENE,75,0.0,0.0,93,0.00,,,0.00,VWS V14.01,2013-01-10 06:55:00,
2013-01-10 02:00:00,67.9,65.8,30.33,ENE,75,0.0,0.0,93,0.00,,,0.00,VWS V14.01,2013-01-10 07:00:00,
2013-01-10 02:05:00,68.2,66.1,30.33,ENE,75,0.0,0.0,93,0.00,,,0.00,VWS V14.01,2013-01-10 07:05:00,
2013-01-10 02:10:00,67.9,65.8,30.32,ENE,75,0.0,0.0,93,0.00,,,0.00,VWS V14.01,2013-01-10 07:10:00,
2013-01-10 02:15:00,68.0,65.9,30.33,ENE,75,0.0,0.0,93,0.00,,,0.00,VWS V14.01,2013-01-10 07:15:00,
2013-01-10 02:20:00,67.9,65.8,30.33,ENE,75,0.0,0.0,93,0.00,,,0.00,VWS V14.01,2013-01-10 07:20:00,
2013-01-10 02:25:00,67.8,65.7,30.33,ENE,75,0.0,0.0,93,0.00,,,0.00,VWS V14.01,2013-01-10 07:25:00,
2013-01-10 02:30:00,67.7,65.6,30.32,ENE,75,0.0,0.0,93,0.00,,,0.00,VWS V14.01,2013-01-10 07:30:00,
2013-01-10 02:35:00,67.6,65.5,30.33,ENE,75,0.0,0.0,93,0.00,,,0.00,VWS V14.01,2013-01-10 07:35:00,
2013-01-10 02:40:00,67.4,65.3,30.33,ENE,75,0.0,0.0,93,0.00,,,0.00,VWS V14.01,2013-01-10 07:40:00,
2013-01-10 02:45:00,67.4,65.3,30.33,ENE,75,0.0,0.0,93,0.00,,,0.00,VWS V14.01,2013-01-10 07:45:00,
2013-01-10 02:50:00,67.3,65.2,30.32,ENE,75,0.0,0.0,93,0.00,,,0.00,VWS V14.01,2013-01-10 07:50:00,
2013-01-10 02:55:00,67.3,65.2,30.32,ENE,75,0.0,0.0,93,0.00,,,0.00,VWS V14.01,2013-01-10 07:55:00,
2013-01-10 03:00:00,67.2,65.1,30.32,ENE,75,0.0,0.0,93,0.00,,,0.00,VWS V14.01,2013-01-10 08:00:00,
2013-01-10 03:05:00,67.1,65.0,30.32,ENE,75,0.0,0.0,93,0.00,,,0.00,VWS V14.01,2013-01-10 08:05:00,
2013-01-10 03:10:00,66.9,64.8,30.32,ENE,75,0.0,0.0,93,0.00,,,0.00,VWS V14.01,2013-01-10 08:10:00,
2013-01-10 03:15:00,67.0,64.9,30.32,ENE,75,0.0,0.0,93,0.00,,,0.00,VWS V14.01,2013-01-10 08:15:00,
2013-01-10 03:20:00,67.1,65.0,30.32,ENE,75,0.0,0.0,93,0.00,,,0.00,VWS V14.01,2013-01-10 08:20:00,
2013-01-10 03:25:00,67.0,64.9,30.32,ENE,75,0.0,0.0,93,0.00,,,0.00,VWS V14.01,2013-01-10 08:25:00,
2013-01-10 03:30:00,66.7,64.7,30.32,ENE,75,0.0,0.0,93,0.00,,,0.00,VWS V14.01,2013-01-10 08:30:00,
2013-01-10 03:35:00,66.6,64.6,30.32,ENE,75,0.0,0.0,93,0.00,,,0.00,VWS V14.01,2013-01-10 08:35:00,
2013-01-10 03:40:00,66.7,64.7,30.31,ENE,75,0.0,0.0,93,0.00,,,0.00,VWS V14.01,2013-01-10 08:40:00,
2013-01-10 03:45:00,66.7,64.7,30.31,ENE,75,0.0,0.0,93,0.00,,,0.00,VWS V14.01,2013-01-10 08:45:00,
2013-01-10 03:50:00,66.9,64.9,30.31,ENE,75,0.0,0.0,93,0.00,,,0.00,VWS V14.01,2013-01-10 08:50:00,
2013-01-10 03:55:00,66.6,64.6,30.31,ENE,75,0.0,0.0,93,0.00,,,0.00,VWS V14.01,2013-01-10 08:55:00,
2013-01-10 04:00:00,66.4,64.4,30.31,ENE,75,0.0,0.0,93,0.00,,,0.00,VWS V14.01,2013-01-10 09:00:00,
2013-01-10 04:05:00,66.7,64.7,30.31,ENE,75,0.0,0.0,93,0.00,,,0.00,VWS V14.01,2013-01-10 09:05:00,
2013-01-10 04:10:00,66.8,64.8,30.31,ENE,75,0.0,0.0,93,0.00,,,0.00,VWS V14.01,2013-01-10 09:10:00,
2013-01-10 04:15:00,66.8,64.9,30.31,ENE,75,0.0,0.0,94,0.00,,,0.00,VWS V14.01,2013-01-10 09:15:00,
2013-01-10 04:20:00,66.8,64.9,30.31,ENE,75,0.0,0.0,94,0.00,,,0.00,VWS V14.01,2013-01-10 09:20:00,
2013-01-10 04:25:00,66.8,64.9,30.31,ENE,75,0.0,0.0,94,0.00,,,0.00,VWS V14.01,2013-01-10 09:25:00,
2013-01-10 04:30:00,66.8,64.9,30.30,ENE,75,0.0,0.0,94,0.00,,,0.00,VWS V14.01,2013-01-10 09:30:00,
2013-01-10 04:35:00,66.9,65.0,30.30,ENE,75,0.0,0.0,94,0.00,,,0.00,VWS V14.01,2013-01-10 09:35:00,
2013-01-10 04:40:00,66.7,64.8,30.30,ENE,75,0.0,0.0,94,0.00,,,0.00,VWS V14.01,2013-01-10 09:40:00,
2013-01-10 04:45:00,66.8,64.9,30.30,ENE,75,0.0,0.0,94,0.00,,,0.00,VWS V14.01,2013-01-10 09:45:00,
2013-01-10 04:50:00,66.7,64.8,30.30,ENE,75,0.0,0.0,94,0.00,,,0.00,VWS V14.01,2013-01-10 09:50:00,
2013-01-10 04:55:00,66.8,64.9,30.30,ENE,75,0.0,0.0,94,0.00,,,0.00,VWS V14.01,2013-01-10 09:55:00,
2013-01-10 05:00:00,66.9,65.0,30.29,ENE,75,0.0,0.0,94,0.00,,,0.00,VWS V14.01,2013-01-10 10:00:00,
2013-01-10 05:05:00,66.7,64.8,30.30,ENE,75,0.0,0.0,94,0.00,,,0.00,VWS V14.01,2013-01-10 10:05:00,
2013-01-10 05:10:00,66.4,64.5,30.30,ENE,75,0.0,0.0,94,0.00,,,0.00,VWS V14.01,2013-01-10 10:10:00,
2013-01-10 05:15:00,66.3,64.4,30.30,ENE,75,0.0,0.0,94,0.00,,,0.00,VWS V14.01,2013-01-10 10:15:00,
2013-01-10 05:20:00,66.3,64.4,30.30,ENE,75,0.0,0.0,94,0.00,,,0.00,VWS V14.01,2013-01-10 10:20:00,
2013-01-10 05:25:00,66.3,64.4,30.30,ENE,75,0.0,0.0,94,0.00,,,0.00,VWS V14.01,2013-01-10 10:25:00,
2013-01-10 05:30:00,66.2,64.3,30.30,ENE,75,0.0,0.0,94,0.00,,,0.00,VWS V14.01,2013-01-10 10:30:00,
2013-01-10 05:35:00,66.1,64.2,30.30,ENE,75,0.0,0.0,94,0.00,,,0.00,VWS V14.01,2013-01-10 10:35:00,
2013-01-10 05:40:00,66.2,64.2,30.30,ENE,75,0.0,0.0,93,0.00,,,0.00,VWS V14.01,2013-01-10 10:40:00,
2013-01-10 05:45:00,66.0,64.0,30.30,ENE,75,0.0,0.0,93,0.00,,,0.00,VWS V14.01,2013-01-10 10:45:00,
2013-01-10 05:50:00,65.9,63.9,30.30,ENE,75,0.0,0.0,93,0.00,,,0.00,VWS V14.01,2013-01-10 10:50:00,
2013-01-10 05:55:00,65.6,63.6,30.30,ENE,75,0.0,0.0,93,0.00,,,0.00,VWS V14.01,2013-01-10 10:55:00,
2013-01-10 06:00:00,65.9,63.9,30.30,ENE,75,0.0,0.0,93,0.00,,,0.00,VWS V14.01,2013-01-10 11:00:00,
2013-01-10 06:05:00,65.7,63.7,30.30,ENE,75,0.0,0.0,93,0.00,,,0.00,VWS V14.01,2013-01-10 11:05:00,
2013-01-10 06:10:00,65.5,63.5,30.30,ENE,75,0.0,0.0,93,0.00,,,0.00,VWS V14.01,2013-01-10 11:10:00,
2013-01-10 06:15:00,65.1,63.1,30.31,ENE,75,0.0,0.0,93,0.00,,,0.00,VWS V14.01,2013-01-10 11:15:00,
2013-01-10 06:20:00,65.3,63.3,30.31,ENE,75,0.0,0.0,93,0.00,,,0.00,VWS V14.01,2013-01-10 11:20:00,
2013-01-10 06:25:00,65.2,63.2,30.31,ENE,75,0.0,0.0,93,0.00,,,0.00,VWS V14.01,2013-01-10 11:25:00,
2013-01-10 06:30:00,65.1,63.1,30.31,ENE,75,0.0,0.0,93,0.00,,,0.00,VWS V14.01,2013-01-10 11:30:00,
2013-01-10 06:35:00,65.1,63.1,30.31,ENE,75,0.0,0.0,93,0.00,,,0.00,VWS V14.01,2013-01-10 11:35:00,
2013-01-10 06:40:00,64.8,62.8,30.32,ENE,75,0.0,0.0,93,0.00,,,0.00,VWS V14.01,2013-01-10 11:40:00,
2013-01-10 06:45:00,65.2,63.3,30.32,ENE,75,0.0,0.0,94,0.00,,,0.00,VWS V14.01,2013-01-10 11:45:00,
2013-01-10 06:50:00,65.3,63.4,30.33,ENE,75,0.0,0.0,94,0.00,,,0.00,VWS V14.01,2013-01-10 11:50:00,
2013-01-10 06:55:00,65.7,63.9,30.33,ENE,75,0.0,0.0,94,0.00,,,0.00,VWS V14.01,2013-01-10 11:55:00,
2013-01-10 07:00:00,65.6,63.8,30.33,ENE,75,0.0,0.0,94,0.00,,,0.00,VWS V14.01,2013-01-10 12:00:00,
2013-01-10 07:05:00,65.7,63.9,30.33,ENE,75,0.0,0.0,94,0.00,,,0.00,VWS V14.01,2013-01-10 12:05:00,
2013-01-10 07:10:00,65.5,63.7,30.33,ENE,75,0.0,0.0,94,0.00,,,0.00,VWS V14.01,2013-01-10 12:10:00,
2013-01-10 07:15:00,65.4,63.6,30.33,ENE,75,0.0,0.0,94,0.00,,,0.00,VWS V14.01,2013-01-10 12:15:00,
2013-01-10 07:20:00,65.3,63.5,30.33,ENE,75,0.0,0.0,94,0.00,,,0.00,VWS V14.01,2013-01-10 12:20:00,
2013-01-10 07:25:00,65.4,63.6,30.33,ENE,75,0.0,0.0,94,0.00,,,0.00,VWS V14.01,2013-01-10 12:25:00,
2013-01-10 07:30:00,65.3,63.5,30.33,ENE,75,0.0,0.0,94,0.00,,,0.00,VWS V14.01,2013-01-10 12:30:00,
2013-01-10 07:35:00,65.3,63.5,30.33,ENE,75,0.0,0.0,94,0.00,,,0.00,VWS V14.01,2013-01-10 12:35:00,
2013-01-10 07:40:00,65.0,63.2,30.33,ENE,75,0.0,0.0,94,0.00,,,0.00,VWS V14.01,2013-01-10 12:40:00,
2013-01-10 07:45:00,65.3,63.5,30.33,ENE,75,0.0,0.0,94,0.00,,,0.00,VWS V14.01,2013-01-10 12:45:00,
2013-01-10 07:50:00,65.1,63.3,30.33,ENE,75,0.0,0.0,94,0.00,,,0.00,VWS V14.01,2013-01-10 12:50:00,
2013-01-10 07:55:00,65.3,63.5,30.33,ENE,75,0.0,0.0,94,0.00,,,0.00,VWS V14.01,2013-01-10 12:55:00,
2013-01-10 08:00:00,65.3,63.5,30.33,ENE,75,0.0,0.0,94,0.00,,,0.00,VWS V14.01,2013-01-10 13:00:00,
2013-01-10 08:05:00,65.1,63.3,30.33,ENE,75,0.0,0.0,94,0.00,,,0.00,VWS V14.01,2013-01-10 13:05:00,
2013-01-10 08:09:00,65.4,63.6,30.33,ENE,75,0.0,0.0,94,0.00,,,0.00,VWS V14.01,2013-01-10 13:09:00,
2013-01-10 08:14:00,65.7,63.9,30.33,ENE,75,0.0,0.0,94,0.00,,,0.00,VWS V14.01,2013-01-10 13:14:00,
2013-01-10 08:19:00,65.8,64.1,30.33,ENE,75,0.0,0.0,94,0.00,,,0.00,VWS V14.01,2013-01-10 13:19:00,
2013-01-10 08:24:00,66.0,64.3,30.33,ENE,75,0.0,0.0,94,0.00,,,0.00,VWS V14.01,2013-01-10 13:24:00,
2013-01-10 08:29:00,66.3,64.6,30.33,ENE,75,0.0,0.0,94,0.00,,,0.00,VWS V14.01,2013-01-10 13:29:00,
2013-01-10 08:34:00,66.8,65.1,30.34,ENE,75,0.0,0.0,94,0.00,,,0.00,VWS V14.01,2013-01-10 13:34:00,
2013-01-10 08:39:00,67.0,65.3,30.34,ENE,75,0.0,0.0,94,0.00,,,0.00,VWS V14.01,2013-01-10 13:39:00,
2013-01-10 08:44:00,67.2,65.5,30.34,ENE,75,0.0,0.0,94,0.00,,,0.00,VWS V14.01,2013-01-10 13:44:00,
2013-01-10 08:49:00,67.8,66.1,30.34,ENE,75,0.0,0.0,94,0.00,,,0.00,VWS V14.01,2013-01-10 13:49:00,
2013-01-10 08:54:00,68.1,66.5,30.34,ENE,75,0.0,0.0,94,0.00,,,0.00,VWS V14.01,2013-01-10 13:54:00,
2013-01-10 08:59:00,68.3,66.7,30.34,ENE,75,0.0,0.0,94,0.00,,,0.00,VWS V14.01,2013-01-10 13:59:00,
2013-01-10 09:04:00,68.4,66.8,30.34,ENE,75,0.0,0.0,94,0.00,,,0.00,VWS V14.01,2013-01-10 14:04:00,
2013-01-10 09:09:00,68.8,67.2,30.34,ENE,75,0.0,0.0,94,0.00,,,0.00,VWS V14.01,2013-01-10 14:09:00,
2013-01-10 09:14:00,68.8,67.2,30.34,ENE,75,0.0,0.0,94,0.00,,,0.00,VWS V14.01,2013-01-10 14:14:00,
2013-01-10 09:19:00,69.2,67.6,30.34,ENE,75,0.0,0.0,94,0.00,,,0.00,VWS V14.01,2013-01-10 14:19:00,
2013-01-10 09:24:00,69.4,67.8,30.34,ENE,75,0.0,0.0,94,0.00,,,0.00,VWS V14.01,2013-01-10 14:24:00,
2013-01-10 09:29:00,69.6,67.9,30.34,ENE,75,0.0,0.0,94,0.00,,,0.00,VWS V14.01,2013-01-10 14:29:00,
2013-01-10 09:34:00,69.8,68.1,30.34,ENE,75,0.0,0.0,94,0.00,,,0.00,VWS V14.01,2013-01-10 14:34:00,
2013-01-10 09:39:00,70.2,68.4,30.34,ENE,75,0.0,0.0,94,0.00,,,0.00,VWS V14.01,2013-01-10 14:39:00,
2013-01-10 09:44:00,70.5,68.6,30.34,ENE,75,0.0,0.0,94,0.00,,,0.00,VWS V14.01,2013-01-10 14:44:00,
2013-01-10 09:49:00,70.7,68.8,30.34,ENE,75,0.0,0.0,94,0.00,,,0.00,VWS V14.01,2013-01-10 14:49:00,
2013-01-10 09:54:00,71.0,69.0,30.33,ENE,75,0.0,0.0,93,0.00,,,0.00,VWS V14.01,2013-01-10 14:54:00,
2013-01-10 09:59:00,71.3,69.1,30.34,ENE,75,0.0,0.0,93,0.00,,,0.00,VWS V14.01,2013-01-10 14:59:00,
2013-01-10 10:04:00,71.6,69.2,30.33,ENE,75,0.0,0.0,92,0.00,,,0.00,VWS V14.01,2013-01-10 15:04:00,
2013-01-10 10:09:00,72.1,69.5,30.33,ENE,75,0.0,0.0,91,0.00,,,0.00,VWS V14.01,2013-01-10 15:09:00,
2013-01-10 10:14:00,72.2,69.4,30.33,ENE,75,0.0,0.0,91,0.00,,,0.00,VWS V14.01,2013-01-10 15:14:00,
2013-01-10 10:19:00,72.6,69.0,30.33,ENE,75,0.0,0.0,88,0.00,,,0.00,VWS V14.01,2013-01-10 15:19:00,
2013-01-10 10:24:00,72.9,69.1,30.33,SE,136,0.0,4.5,88,0.00,,,0.00,VWS V14.01,2013-01-10 15:24:00,
2013-01-10 10:29:00,73.1,68.6,30.33,SE,136,0.0,0.0,86,0.00,,,0.00,VWS V14.01,2013-01-10 15:29:00,
2013-01-10 10:34:00,73.3,68.3,30.32,SE,136,0.0,0.0,84,0.00,,,0.00,VWS V14.01,2013-01-10 15:34:00,
2013-01-10 10:39:00,73.8,68.0,30.32,SE,136,0.0,0.0,82,0.00,,,0.00,VWS V14.01,2013-01-10 15:39:00,
2013-01-10 10:44:00,74.0,67.4,30.32,SE,136,0.0,0.0,80,0.00,,,0.00,VWS V14.01,2013-01-10 15:44:00,
2013-01-10 10:49:00,74.5,67.9,30.31,SE,136,0.0,0.0,80,0.00,,,0.00,VWS V14.01,2013-01-10 15:49:00,
2013-01-10 10:54:00,74.9,67.8,30.31,SE,136,0.0,0.0,78,0.00,,,0.00,VWS V14.01,2013-01-10 15:54:00,
2013-01-10 10:59:00,75.3,68.0,30.31,SE,136,0.0,0.0,78,0.00,,,0.00,VWS V14.01,2013-01-10 15:59:00,
2013-01-10 11:04:00,75.7,67.6,30.31,SE,136,0.0,0.0,76,0.00,,,0.00,VWS V14.01,2013-01-10 16:04:00,
2013-01-10 11:09:00,76.1,67.9,30.30,South,179,0.0,0.0,76,0.00,,,0.00,VWS V14.01,2013-01-10 16:09:00,
2013-01-10 11:14:00,76.4,67.3,30.30,South,179,0.0,0.0,74,0.00,,,0.00,VWS V14.01,2013-01-10 16:14:00,
2013-01-10 11:19:00,76.6,66.9,30.29,East,101,0.0,0.0,72,0.00,,,0.00,VWS V14.01,2013-01-10 16:19:00,
2013-01-10 11:24:00,77.0,67.2,30.29,SE,145,1.2,3.2,72,0.01,,,0.01,VWS V14.01,2013-01-10 16:24:00,
2013-01-10 11:29:00,77.2,66.6,30.29,SE,145,0.0,0.0,70,0.01,,,0.01,VWS V14.01,2013-01-10 16:29:00,
2013-01-10 11:34:00,77.4,66.8,30.28,SE,145,0.0,0.0,70,0.01,,,0.01,VWS V14.01,2013-01-10 16:34:00,
2013-01-10 11:39:00,77.7,66.9,30.28,East,96,0.0,0.0,70,0.01,,,0.01,VWS V14.01,2013-01-10 16:39:00,
2013-01-10 11:44:00,77.9,66.7,30.28,East,96,0.0,0.0,68,0.01,,,0.01,VWS V14.01,2013-01-10 16:44:00,
2013-01-10 11:49:00,78.1,66.4,30.28,ENE,59,0.0,0.0,67,0.01,,,0.01,VWS V14.01,2013-01-10 16:49:00,
2013-01-10 11:54:00,78.2,65.8,30.27,ESE,111,0.0,0.0,66,0.01,,,0.01,VWS V14.01,2013-01-10 16:54:00,
2013-01-10 11:59:00,78.2,66.4,30.27,East,101,0.0,0.0,67,0.01,,,0.01,VWS V14.01,2013-01-10 16:59:00,
2013-01-10 12:04:00,78.5,66.5,30.27,East,101,0.0,0.0,67,0.01,,,0.01,VWS V14.01,2013-01-10 17:04:00,
2013-01-10 12:09:00,78.5,66.6,30.27,East,101,0.0,0.0,67,0.01,,,0.01,VWS V14.01,2013-01-10 17:09:00,
2013-01-10 12:14:00,78.4,66.3,30.26,ESE,111,0.0,0.0,66,0.01,,,0.01,VWS V14.01,2013-01-10 17:14:00,
2013-01-10 12:19:00,78.3,66.3,30.26,ESE,112,0.0,2.2,67,0.01,,,0.01,VWS V14.01,2013-01-10 17:19:00,
2013-01-10 12:24:00,78.8,66.3,30.26,ESE,112,0.0,3.1,66,0.00,,,0.01,VWS V14.01,2013-01-10 17:24:00,
2013-01-10 12:29:00,78.5,66.1,30.26,ESE,112,0.0,0.0,66,0.00,,,0.01,VWS V14.01,2013-01-10 17:29:00,
2013-01-10 12:34:00,78.8,67.1,30.26,ESE,112,0.0,0.0,67,0.00,,,0.01,VWS V14.01,2013-01-10 17:34:00,
2013-01-10 12:39:00,78.9,66.6,30.25,ESE,112,0.0,0.0,66,0.00,,,0.01,VWS V14.01,2013-01-10 17:39:00,
2013-01-10 12:44:00,79.1,66.6,30.25,ESE,112,0.0,0.0,66,0.00,,,0.01,VWS V14.01,2013-01-10 17:44:00,
2013-01-10 12:49:00,79.2,67.0,30.25,ESE,112,0.0,0.0,66,0.00,,,0.01,VWS V14.01,2013-01-10 17:49:00,
2013-01-10 12:54:00,79.7,66.9,30.24,East,96,0.0,0.0,65,0.00,,,0.01,VWS V14.01,2013-01-10 17:54:00,
2013-01-10 12:59:00,79.3,66.2,30.25,East,96,0.0,0.0,64,0.00,,,0.01,VWS V14.01,2013-01-10 17:59:00,
2013-01-10 13:04:00,79.7,66.6,30.25,East,96,0.0,0.0,64,0.00,,,0.01,VWS V14.01,2013-01-10 18:04:00,
2013-01-10 13:09:00,79.7,67.0,30.25,East,96,0.0,0.0,65,0.00,,,0.01,VWS V14.01,2013-01-10 18:09:00,
2013-01-10 13:14:00,79.9,66.1,30.25,ESE,104,0.0,0.0,63,0.00,,,0.01,VWS V14.01,2013-01-10 18:14:00,
2013-01-10 13:19:00,79.9,66.1,30.25,SE,142,0.0,4.3,63,0.00,,,0.01,VWS V14.01,2013-01-10 18:19:00,
2013-01-10 13:24:00,80.0,66.4,30.25,SE,136,0.0,0.0,63,0.00,,,0.01,VWS V14.01,2013-01-10 18:24:00,
2013-01-10 13:29:00,79.8,66.5,30.25,ENE,59,0.0,0.0,64,0.00,,,0.01,VWS V14.01,2013-01-10 18:29:00,
2013-01-10 13:34:00,79.5,66.5,30.25,ENE,59,0.0,0.0,64,0.00,,,0.01,VWS V14.01,2013-01-10 18:34:00,
2013-01-10 13:39:00,79.8,66.2,30.25,SSE,158,2.9,4.7,63,0.00,,,0.01,VWS V14.01,2013-01-10 18:39:00,
2013-01-10 13:44:00,79.5,66.3,30.25,SSE,158,0.0,0.0,64,0.00,,,0.01,VWS V14.01,2013-01-10 18:44:00,
2013-01-10 13:49:00,79.4,66.8,30.25,SE,135,0.0,0.0,65,0.00,,,0.01,VWS V14.01,2013-01-10 18:49:00,
2013-01-10 13:54:00,79.8,67.0,30.25,NE,48,0.0,3.2,65,0.00,,,0.01,VWS V14.01,2013-01-10 18:54:00,
2013-01-10 13:59:00,79.4,67.2,30.25,ESE,115,0.0,3.2,66,0.00,,,0.01,VWS V14.01,2013-01-10 18:59:00,
2013-01-10 14:04:00,79.5,67.5,30.25,ESE,115,0.0,0.0,67,0.00,,,0.01,VWS V14.01,2013-01-10 19:04:00,
2013-01-10 14:09:00,79.8,67.1,30.25,ENE,68,0.0,3.5,65,0.00,,,0.01,VWS V14.01,2013-01-10 19:09:00,
2013-01-10 14:14:00,79.9,67.2,30.25,ENE,68,0.0,0.0,65,0.00,,,0.01,VWS V14.01,2013-01-10 19:14:00,
2013-01-10 14:19:00,79.9,67.4,30.25,ENE,68,0.0,0.0,66,0.00,,,0.01,VWS V14.01,2013-01-10 19:19:00,
2013-01-10 14:24:00,80.1,67.8,30.25,ENE,68,0.0,0.0,66,0.00,,,0.01,VWS V14.01,2013-01-10 19:24:00,
2013-01-10 14:29:00,80.1,67.2,30.25,ENE,68,0.0,0.0,65,0.00,,,0.01,VWS V14.01,2013-01-10 19:29:00,
2013-01-10 14:34:00,80.3,67.6,30.26,ENE,68,0.0,0.0,65,0.00,,,0.01,VWS V14.01,2013-01-10 19:34:00,
2013-01-10 14:39:00,80.5,66.9,30.26,ENE,68,0.0,0.0,63,0.00,,,0.01,VWS V14.01,2013-01-10 19:39:00,
2013-01-10 14:44:00,80.4,67.4,30.25,ENE,68,2.9,2.9,65,0.00,,,0.01,VWS V14.01,2013-01-10 19:44:00,
2013-01-10 14:49:00,80.5,68.1,30.26,ENE,68,0.0,0.0,66,0.00,,,0.01,VWS V14.01,2013-01-10 19:49:00,
2013-01-10 14:53:00,80.2,68.8,30.26,ENE,68,0.0,0.0,68,0.00,,,0.01,VWS V14.01,2013-01-10 19:53:00,
2013-01-10 14:59:00,80.3,68.6,30.25,SE,145,0.0,4.3,68,0.00,,,0.01,VWS V14.01,2013-01-10 19:59:00,
2013-01-10 15:04:00,80.3,68.8,30.25,SE,145,0.0,0.0,68,0.00,,,0.01,VWS V14.01,2013-01-10 20:04:00,
2013-01-10 15:09:00,80.3,68.9,30.26,SE,145,0.0,0.0,68,0.00,,,0.01,VWS V14.01,2013-01-10 20:09:00,
2013-01-10 15:13:00,80.3,68.9,30.25,SE,145,0.0,0.0,68,0.00,,,0.01,VWS V14.01,2013-01-10 20:13:00,
2013-01-10 15:19:00,80.0,68.1,30.25,East,93,0.0,0.0,67,0.00,,,0.01,VWS V14.01,2013-01-10 20:19:00,
2013-01-10 15:24:00,79.7,68.1,30.26,East,93,0.0,0.0,68,0.00,,,0.01,VWS V14.01,2013-01-10 20:24:00,
2013-01-10 15:29:00,79.5,68.3,30.26,East,93,0.0,0.0,69,0.00,,,0.01,VWS V14.01,2013-01-10 20:29:00,
2013-01-10 15:34:00,79.4,68.6,30.26,ESE,121,3.4,4.6,70,0.00,,,0.01,VWS V14.01,2013-01-10 20:34:00,
2013-01-10 15:39:00,79.7,69.3,30.26,ESE,121,0.0,0.0,70,0.00,,,0.01,VWS V14.01,2013-01-10 20:39:00,
2013-01-10 15:44:00,79.7,69.3,30.27,SE,125,0.0,0.0,71,0.00,,,0.01,VWS V14.01,2013-01-10 20:44:00,
2013-01-10 15:49:00,79.4,69.2,30.27,NE,46,0.0,0.0,71,0.00,,,0.01,VWS V14.01,2013-01-10 20:49:00,
2013-01-10 15:54:00,79.3,69.1,30.27,East,82,3.3,4.5,71,0.00,,,0.01,VWS V14.01,2013-01-10 20:54:00,
2013-01-10 15:59:00,79.1,69.6,30.27,SE,132,0.0,0.0,73,0.00,,,0.01,VWS V14.01,2013-01-10 20:59:00,
2013-01-10 16:04:00,78.9,69.4,30.27,East,101,0.0,0.0,73,0.00,,,0.01,VWS V14.01,2013-01-10 21:04:00,
2013-01-10 16:09:00,78.7,69.4,30.27,ESE,121,0.0,0.0,73,0.00,,,0.01,VWS V14.01,2013-01-10 21:09:00,
2013-01-10 16:14:00,78.8,69.3,30.27,ESE,121,0.0,0.0,73,0.00,,,0.01,VWS V14.01,2013-01-10 21:14:00,
2013-01-10 16:19:00,78.7,69.4,30.27,East,83,0.0,0.0,73,0.00,,,0.01,VWS V14.01,2013-01-10 21:19:00,
2013-01-10 16:24:00,78.4,69.3,30.27,East,83,0.0,0.0,74,0.00,,,0.01,VWS V14.01,2013-01-10 21:24:00,
2013-01-10 16:29:00,78.2,69.2,30.28,ENE,72,0.0,0.0,74,0.00,,,0.01,VWS V14.01,2013-01-10 21:29:00,
2013-01-10 16:34:00,78.2,69.4,30.27,ENE,72,0.0,0.0,74,0.00,,,0.01,VWS V14.01,2013-01-10 21:34:00,
2013-01-10 16:39:00,78.1,69.3,30.27,ENE,72,0.0,2.3,74,0.00,,,0.01,VWS V14.01,2013-01-10 21:39:00,
2013-01-10 16:44:00,77.8,69.4,30.27,ENE,72,0.0,0.0,75,0.00,,,0.01,VWS V14.01,2013-01-10 21:44:00,
2013-01-10 16:49:00,77.3,69.1,30.27,ENE,77,0.0,0.0,76,0.00,,,0.01,VWS V14.01,2013-01-10 21:49:00,
2013-01-10 16:54:00,77.1,68.4,30.27,ENE,68,0.0,0.0,75,0.00,,,0.01,VWS V14.01,2013-01-10 21:54:00,
2013-01-10 16:59:00,77.1,68.3,30.27,ENE,68,0.0,0.0,74,0.00,,,0.01,VWS V14.01,2013-01-10 21:59:00,
2013-01-10 17:04:00,77.0,68.3,30.27,ENE,68,0.0,0.0,74,0.00,,,0.01,VWS V14.01,2013-01-10 22:04:00,
2013-01-10 17:09:00,76.7,67.9,30.28,East,100,0.0,0.0,74,0.00,,,0.01,VWS V14.01,2013-01-10 22:09:00,
2013-01-10 17:14:00,76.8,68.2,30.28,East,100,0.0,0.0,75,0.00,,,0.01,VWS V14.01,2013-01-10 22:14:00,
2013-01-10 17:19:00,76.5,67.9,30.28,East,100,0.0,0.0,75,0.00,,,0.01,VWS V14.01,2013-01-10 22:19:00,
2013-01-10 17:24:00,76.2,67.8,30.28,ESE,110,0.0,0.0,75,0.00,,,0.01,VWS V14.01,2013-01-10 22:24:00,
2013-01-10 17:29:00,76.1,67.8,30.27,ESE,110,0.0,0.0,76,0.00,,,0.01,VWS V14.01,2013-01-10 22:29:00,
2013-01-10 17:34:00,76.0,68.0,30.27,ESE,110,0.0,0.0,76,0.00,,,0.01,VWS V14.01,2013-01-10 22:34:00,
2013-01-10 17:39:00,75.9,67.9,30.27,ESE,110,0.0,0.0,76,0.00,,,0.01,VWS V14.01,2013-01-10 22:39:00,
2013-01-10 17:44:00,75.7,67.8,30.27,ESE,110,0.0,0.0,76,0.00,,,0.01,VWS V14.01,2013-01-10 22:44:00,
2013-01-10 17:49:00,75.5,67.8,30.27,ESE,110,0.0,0.0,77,0.00,,,0.01,VWS V14.01,2013-01-10 22:49:00,
2013-01-10 17:54:00,75.4,67.8,30.28,ESE,110,0.0,0.0,77,0.00,,,0.01,VWS V14.01,2013-01-10 22:54:00,
2013-01-10 17:59:00,75.3,67.9,30.28,ESE,110,0.0,0.0,78,0.00,,,0.01,VWS V14.01,2013-01-10 22:59:00,
2013-01-10 18:04:00,75.1,67.8,30.27,ESE,110,0.0,0.0,78,0.00,,,0.01,VWS V14.01,2013-01-10 23:04:00,
2013-01-10 18:09:00,75.0,67.8,30.28,ESE,110,0.0,0.0,78,0.00,,,0.01,VWS V14.01,2013-01-10 23:09:00,
2013-01-10 18:14:00,74.8,67.7,30.28,ESE,110,0.0,0.0,79,0.00,,,0.01,VWS V14.01,2013-01-10 23:14:00,
2013-01-10 18:19:00,74.7,67.7,30.28,ESE,110,0.0,0.0,79,0.00,,,0.01,VWS V14.01,2013-01-10 23:19:00,
2013-01-10 18:24:00,74.5,67.5,30.28,ESE,110,0.0,0.0,79,0.00,,,0.01,VWS V14.01,2013-01-10 23:24:00,
2013-01-10 18:29:00,74.3,67.3,30.28,ESE,110,0.0,0.0,79,0.00,,,0.01,VWS V14.01,2013-01-10 23:29:00,
2013-01-10 18:34:00,74.3,67.5,30.27,ESE,110,0.0,0.0,79,0.00,,,0.01,VWS V14.01,2013-01-10 23:34:00,
2013-01-10 18:39:00,74.0,67.2,30.27,ESE,110,0.0,0.0,79,0.00,,,0.01,VWS V14.01,2013-01-10 23:39:00,
2013-01-10 18:44:00,73.9,67.0,30.28,ESE,110,0.0,0.0,79,0.00,,,0.01,VWS V14.01,2013-01-10 23:44:00,
2013-01-10 18:49:00,73.7,66.9,30.28,ESE,110,0.0,0.0,79,0.00,,,0.01,VWS V14.01,2013-01-10 23:49:00,
2013-01-10 18:54:00,73.7,66.9,30.28,ESE,110,0.0,0.0,79,0.00,,,0.01,VWS V14.01,2013-01-10 23:54:00,
2013-01-10 18:59:00,73.6,66.9,30.28,ESE,110,0.0,0.0,80,0.00,,,0.01,VWS V14.01,2013-01-10 23:59:00,
2013-01-10 19:04:00,73.4,66.7,30.28,ESE,110,0.0,0.0,80,0.00,,,0.01,VWS V14.01,2013-01-11 00:04:00,
2013-01-10 19:09:00,73.3,66.7,30.28,ESE,110,0.0,0.0,80,0.00,,,0.01,VWS V14.01,2013-01-11 00:09:00,
2013-01-10 19:14:00,73.1,66.6,30.28,ESE,110,0.0,0.0,80,0.00,,,0.01,VWS V14.01,2013-01-11 00:14:00,
2013-01-10 19:19:00,73.0,66.7,30.28,ESE,110,0.0,0.0,80,0.00,,,0.01,VWS V14.01,2013-01-11 00:19:00,
2013-01-10 19:24:00,72.9,66.7,30.28,ESE,110,0.0,0.0,81,0.00,,,0.01,VWS V14.01,2013-01-11 00:24:00,
2013-01-10 19:29:00,72.8,66.7,30.28,ESE,110,0.0,0.0,81,0.00,,,0.01,VWS V14.01,2013-01-11 00:29:00,
2013-01-10 19:34:00,72.4,66.4,30.28,ESE,110,0.0,0.0,81,0.00,,,0.01,VWS V14.01,2013-01-11 00:34:00,
2013-01-10 19:39:00,72.3,66.4,30.28,ESE,110,0.0,0.0,82,0.00,,,0.01,VWS V14.01,2013-01-11 00:39:00,
2013-01-10 19:44:00,72.1,66.3,30.28,ESE,110,0.0,0.0,82,0.00,,,0.01,VWS V14.01,2013-01-11 00:44:00,
2013-01-10 19:49:00,72.1,66.4,30.28,ESE,110,0.0,0.0,82,0.00,,,0.01,VWS V14.01,2013-01-11 00:49:00,
2013-01-10 19:54:00,71.8,66.2,30.28,ESE,110,0.0,0.0,82,0.00,,,0.01,VWS V14.01,2013-01-11 00:54:00,
2013-01-10 19:59:00,72.0,66.4,30.28,ESE,110,0.0,0.0,83,0.00,,,0.01,VWS V14.01,2013-01-11 00:59:00,
2013-01-10 20:04:00,71.8,66.3,30.29,ESE,110,0.0,0.0,83,0.00,,,0.01,VWS V14.01,2013-01-11 01:04:00,
2013-01-10 20:09:00,71.5,66.0,30.28,ESE,110,0.0,0.0,83,0.00,,,0.01,VWS V14.01,2013-01-11 01:09:00,
2013-01-10 20:14:00,71.5,66.2,30.28,ESE,110,0.0,0.0,83,0.00,,,0.01,VWS V14.01,2013-01-11 01:14:00,
2013-01-10 20:19:00,71.3,66.1,30.28,ESE,110,0.0,0.0,84,0.00,,,0.01,VWS V14.01,2013-01-11 01:19:00,
2013-01-10 20:24:00,71.2,66.1,30.28,ESE,110,0.0,0.0,84,0.00,,,0.01,VWS V14.01,2013-01-11 01:24:00,
2013-01-10 20:29:00,71.1,66.1,30.28,ESE,110,0.0,0.0,84,0.00,,,0.01,VWS V14.01,2013-01-11 01:29:00,
2013-01-10 20:34:00,71.0,66.0,30.28,ESE,110,0.0,0.0,84,0.00,,,0.01,VWS V14.01,2013-01-11 01:34:00,
2013-01-10 20:39:00,70.9,66.0,30.29,ESE,110,0.0,0.0,84,0.00,,,0.01,VWS V14.01,2013-01-11 01:39:00,
2013-01-10 20:44:00,70.8,65.9,30.29,ESE,110,0.0,0.0,85,0.00,,,0.01,VWS V14.01,2013-01-11 01:44:00,
2013-01-10 20:49:00,70.7,65.9,30.29,ESE,110,0.0,0.0,85,0.00,,,0.01,VWS V14.01,2013-01-11 01:49:00,
2013-01-10 20:54:00,70.7,66.0,30.29,ESE,110,0.0,0.0,85,0.00,,,0.01,VWS V14.01,2013-01-11 01:54:00,
2013-01-10 20:59:00,70.4,65.8,30.29,ESE,110,0.0,0.0,85,0.00,,,0.01,VWS V14.01,2013-01-11 01:59:00,
2013-01-10 21:04:00,70.4,65.9,30.30,ESE,110,0.0,0.0,86,0.00,,,0.01,VWS V14.01,2013-01-11 02:04:00,
2013-01-10 21:09:00,70.3,65.8,30.30,ESE,110,0.0,0.0,86,0.00,,,0.01,VWS V14.01,2013-01-11 02:09:00,
2013-01-10 21:14:00,70.1,65.7,30.30,ESE,110,0.0,0.0,86,0.00,,,0.01,VWS V14.01,2013-01-11 02:14:00,
2013-01-10 21:19:00,70.0,65.7,30.30,ESE,110,0.0,0.0,86,0.00,,,0.01,VWS V14.01,2013-01-11 02:19:00,
2013-01-10 21:24:00,69.9,65.6,30.30,ESE,110,0.0,0.0,86,0.00,,,0.01,VWS V14.01,2013-01-11 02:24:00,
2013-01-10 21:29:00,69.8,65.6,30.30,ESE,110,0.0,0.0,86,0.00,,,0.01,VWS V14.01,2013-01-11 02:29:00,
2013-01-10 21:34:00,69.7,65.6,30.30,ESE,110,0.0,0.0,87,0.00,,,0.01,VWS V14.01,2013-01-11 02:34:00,
2013-01-10 21:39:00,69.6,65.5,30.30,ESE,110,0.0,0.0,87,0.00,,,0.01,VWS V14.01,2013-01-11 02:39:00,
2013-01-10 21:44:00,69.4,65.5,30.30,ESE,110,0.0,0.0,87,0.00,,,0.01,VWS V14.01,2013-01-11 02:44:00,
2013-01-10 21:49:00,69.3,65.4,30.31,ESE,110,0.0,0.0,88,0.00,,,0.01,VWS V14.01,2013-01-11 02:49:00,
2013-01-10 21:54:00,69.3,65.5,30.31,ESE,110,0.0,0.0,88,0.00,,,0.01,VWS V14.01,2013-01-11 02:54:00,
2013-01-10 21:59:00,69.0,65.2,30.30,ESE,110,0.0,0.0,88,0.00,,,0.01,VWS V14.01,2013-01-11 02:59:00,
2013-01-10 22:04:00,68.8,65.2,30.30,ESE,110,0.0,0.0,88,0.00,,,0.01,VWS V14.01,2013-01-11 03:04:00,
2013-01-10 22:09:00,68.7,65.1,30.30,ESE,110,0.0,0.0,88,0.00,,,0.01,VWS V14.01,2013-01-11 03:09:00,
2013-01-10 22:14:00,68.6,65.1,30.30,ESE,110,0.0,0.0,89,0.00,,,0.01,VWS V14.01,2013-01-11 03:14:00,
2013-01-10 22:19:00,68.5,65.1,30.30,ESE,110,0.0,0.0,89,0.00,,,0.01,VWS V14.01,2013-01-11 03:19:00,
2013-01-10 22:24:00,68.3,65.0,30.30,ESE,110,0.0,0.0,89,0.00,,,0.01,VWS V14.01,2013-01-11 03:24:00,
2013-01-10 22:29:00,68.2,65.0,30.30,ESE,110,0.0,0.0,89,0.00,,,0.01,VWS V14.01,2013-01-11 03:29:00,
2013-01-10 22:34:00,68.2,65.0,30.30,ESE,110,0.0,0.0,90,0.00,,,0.01,VWS V14.01,2013-01-11 03:34:00,
2013-01-10 22:39:00,67.9,64.8,30.30,ESE,110,0.0,0.0,90,0.00,,,0.01,VWS V14.01,2013-01-11 03:39:00,
2013-01-10 22:44:00,67.9,64.9,30.30,ESE,110,0.0,0.0,90,0.00,,,0.01,VWS V14.01,2013-01-11 03:44:00,
2013-01-10 22:49:00,67.5,64.5,30.30,ESE,110,0.0,0.0,90,0.00,,,0.01,VWS V14.01,2013-01-11 03:49:00,
2013-01-10 22:54:00,67.5,64.5,30.30,ESE,110,0.0,0.0,90,0.00,,,0.01,VWS V14.01,2013-01-11 03:54:00,
2013-01-10 22:59:00,67.5,64.5,30.30,ESE,110,0.0,0.0,90,0.00,,,0.01,VWS V14.01,2013-01-11 03:59:00,
2013-01-10 23:04:00,67.2,64.3,30.30,ESE,110,0.0,0.0,90,0.00,,,0.01,VWS V14.01,2013-01-11 04:04:00,
2013-01-10 23:09:00,67.3,64.4,30.30,ESE,110,0.0,0.0,90,0.00,,,0.01,VWS V14.01,2013-01-11 04:09:00,
2013-01-10 23:14:00,67.1,64.2,30.30,ESE,110,0.0,0.0,90,0.00,,,0.01,VWS V14.01,2013-01-11 04:14:00,
2013-01-10 23:19:00,67.0,64.2,30.30,ESE,110,0.0,0.0,91,0.00,,,0.01,VWS V14.01,2013-01-11 04:19:00,
2013-01-10 23:24:00,67.1,64.3,30.30,ESE,110,0.0,0.0,91,0.00,,,0.01,VWS V14.01,2013-01-11 04:24:00,
2013-01-10 23:29:00,67.0,64.2,30.29,ESE,110,0.0,0.0,91,0.00,,,0.01,VWS V14.01,2013-01-11 04:29:00,
2013-01-10 23:34:00,67.0,64.2,30.29,ESE,110,0.0,0.0,91,0.00,,,0.01,VWS V14.01,2013-01-11 04:34:00,
2013-01-10 23:39:00,66.9,64.2,30.29,ESE,110,0.0,0.0,91,0.00,,,0.01,VWS V14.01,2013-01-11 04:39:00,
2013-01-10 23:44:00,67.0,64.3,30.29,ESE,110,0.0,0.0,91,0.00,,,0.01,VWS V14.01,2013-01-11 04:44:00,
2013-01-10 23:49:00,67.1,64.4,30.29,ESE,110,0.0,0.0,91,0.00,,,0.01,VWS V14.01,2013-01-11 04:49:00,
2013-01-10 23:54:00,67.0,64.3,30.29,ESE,110,0.0,0.0,91,0.00,,,0.01,VWS V14.01,2013-01-11 04:54:00,
2013-01-10 23:59:00,67.0,64.3,30.29,ESE,110,0.0,0.0,91,0.00,,,0.01,VWS V14.01,2013-01-11 04:59:00,